Wetbulb
58.24 58.38 57.16 55.45 53.31 52.20 49.82 43.06 40.45 49.74 48.13 41.99 38.10 39.84 43.87 47.96 48.41 49.02 47.79 46.36 45.51 43.70 45.87 44.33 44.19 45.78 47.79 49.94 48.90 45.17 43.15 39.49 37.95 42.40 48.62 48.47 46.03 43.46 41.04 38.02 37.10 36.74 37.05 40.31
58.44 58.40 56.82 54.81 52.83 52.39 48.86 42.41 40.92 50.05 47.78 38.98 38.26 41.22 45.38 47.69 46.95 46.40 46.82 46.55 47.33 45.22 43.58 41.73 44.92 47.03 50.08 50.97 48.56 45.14 44.85 37.15 36.45 40.92 43.45 45.65 44.54 44.46 40.92 40.97 39.92 38.27 37.50 39.38
58.42 58.44 56.46 54.43 53.01 52.60 48.05 42.28 39.21 46.48 46.37 42.15 42.03 42.23 44.04 45.33 52.07 49.00 49.56 47.72 45.22 42.47 40.94 41.25 42.93 45.93 49.92 50.15 50.28 57.70 50.42 37.90 38.08 37.02 38.43 42.30 41.81 44.77 43.93 40.79 38.72 37.95 39.74 42.23
58.46 58.50 56.24 54.53 53.36 52.54 47.68 43.08 40.53 45.44 42.52 44.33 44.34 43.69 45.34 46.94 45.75 49.45 49.05 47.24 45.92 43.02 39.47 39.91 42.14 45.50 45.95 49.41 56.24 46.37 45.78 40.67 40.84 39.99 43.47 45.06 44.25 44.92 45.35 42.37 41.30 39.71 40.68 43.10
58.52 58.32 56.10 54.89 53.96 52.21 48.67 45.78 43.73 45.51 42.07 44.16 43.11 41.41 42.14 45.27 46.79 46.93 47.64 46.80 49.90 44.55 40.30 43.16 43.57 43.60 42.04 44.34 45.31 43.09 43.92 40.58 41.30 41.27 45.91 46.17 44.56 45.83 45.87 45.15 45.38 44.45 44.46 43.95
58.46 57.60 56.20 54.75 54.16 50.99 45.47 46.51 47.16 47.48 42.16 42.67 40.49 41.04 44.00 46.57 47.08 48.70 50.85 50.72 48.20 46.12 47.90 47.86 45.62 46.02 44.41 45.95 43.90 41.52 43.25 41.43 39.87 37.22 43.49 42.87 39.38 43.49 44.72 46.57 47.80 46.62 42.87 45.89
58.73 57.25 56.13 54.97 54.81 51.94 47.19 46.45 46.57 44.78 40.70 44.27 44.22 46.82 47.67 46.60 47.24 45.68 48.99 49.83 47.60 50.11 46.91 46.87 45.35 44.73 43.34 44.43 41.66 40.67 41.73 39.13 38.14 35.90 38.10 32.98 42.27 46.73 49.82 47.82 49.00 50.00 50.04 51.48
58.84 56.97 55.85 55.04 55.23 53.87 47.76 47.17 46.38 45.29 41.76 45.93 46.48 46.31 46.20 45.60 45.15 46.19 48.48 51.68 53.11 49.33 44.94 41.70 39.91 39.51 40.40 42.40 43.33 38.97 41.48 40.84 37.47 36.49 35.04 39.06 44.91 48.52 48.39 47.04 46.36 51.34 50.52 53.44
58.32 56.87 55.91 54.94 55.27 54.24 49.05 48.13 48.14 46.25 43.57 42.41 49.44 46.39 46.70 41.59 40.49 44.65 48.81 52.77 53.15 47.62 43.31 41.46 35.45 36.11 38.02 38.76 40.67 41.06 41.51 41.61 39.87 36.78 35.13 34.43 42.41 49.40 52.96 50.99 42.54 50.79 52.86 54.12
57.28 56.43 55.36 54.93 55.36 54.34 50.47 48.83 49.16 47.08 47.17 48.46 48.05 45.32 43.74 47.46 45.27 42.80 45.69 48.89 48.96 46.09 41.58 39.64 37.64 37.93 42.60 38.59 38.98 38.14 38.33 38.38 37.21 36.81 35.80 40.04 46.80 52.15 53.17 42.39 43.02 52.59 54.36 55.53
56.22 55.26 54.51 54.80 54.67 54.52 52.01 47.73 50.64 49.71 48.50 48.50 52.35 52.88 49.25 47.64 46.71 41.61 45.35 47.34 47.37 45.58 41.11 40.49 39.82 38.35 40.91 40.94 39.91 38.98 39.48 37.45 36.43 36.63 34.28 35.02 50.93 52.62 47.07 48.52 51.07 53.58 55.01 56.10
54.72 54.20 54.18 54.48 54.67 54.58 53.10 46.81 51.24 50.87 45.76 46.72 51.84 53.09 55.04 53.62 52.61 47.17 46.22 46.68 47.39 47.35 42.85 40.63 40.38 40.33 39.24 40.31 39.09 41.24 39.30 40.51 39.30 40.96 40.58 46.89 50.48 50.51 52.02 52.44 51.73 55.10 55.33 56.17
53.87 53.79 54.07 54.24 54.40 54.52 52.65 46.66 49.47 49.49 47.28 46.92 47.16 47.94 52.71 54.30 53.56 54.37 45.96 46.89 51.40 47.81 47.32 43.91 41.84 40.57 40.46 40.26 39.76 40.90 42.07 43.68 41.57 42.66 44.23 46.57 49.46 51.75 54.09 54.35 54.27 56.68 56.70 56.98
53.75 53.85 53.95 54.05 54.17 54.30 53.46 47.40 46.88 46.18 45.60 43.63 44.67 52.77 50.65 54.37 52.82 53.01 53.29 51.46 51.10 49.84 47.78 45.30 43.13 40.89 42.02 39.97 42.60 42.44 45.01 45.01 42.43 42.85 46.10 49.23 51.02 52.70 54.49 56.52 56.94 57.83 57.84 56.80
53.18 53.55 53.68 53.74 53.89 53.58 51.13 48.85 48.24 48.37 44.99 42.92 43.37 49.38 51.57 52.25 52.33 52.15 52.51 51.37 49.78 46.60 44.65 43.93 43.96 42.27 44.60 40.83 41.26 41.45 45.45 43.16 43.60 43.58 48.59 48.81 49.47 52.89 55.74 56.61 56.30 57.88 58.51 56.86
52.37 52.76 53.32 53.56 53.41 52.47 45.69 42.27 50.20 50.94 50.20 47.22 42.58 48.46 49.13 51.98 51.32 50.18 50.52 50.42 49.69 47.21 45.14 45.92 45.49 47.17 43.91 40.62 38.87 44.67 44.86 45.06 48.25 49.08 50.33 51.26 53.21 55.22 56.73 56.18 56.57 57.80 59.25 59.22
51.96 52.20 52.71 52.93 52.59 48.86 43.34 42.20 50.79 51.61 50.56 48.31 43.43 43.65 49.17 53.48 48.72 47.25 48.78 50.92 48.77 48.55 47.22 45.45 46.82 46.64 44.26 40.91 40.26 46.30 47.66 48.39 48.81 51.14 52.75 51.21 53.76 53.92 55.92 56.44 57.44 57.40 59.75 60.77
51.79 51.76 52.35 52.30 52.11 50.43 46.36 47.37 50.72 50.76 47.78 48.92 43.07 43.62 46.28 52.48 48.04 45.06 48.96 47.27 48.59 47.07 46.70 46.98 45.73 45.59 43.47 41.76 45.51 46.93 49.66 50.49 51.06 51.20 52.62 52.72 52.63 54.11 54.71 55.13 55.69 56.70 57.50 59.73
51.78 52.01 52.29 48.31 48.10 44.06 44.85 54.29 53.33 50.83 48.46 45.07 45.82 43.41 42.15 51.73 48.88 48.24 46.87 46.31 44.78 47.06 45.33 46.29 47.51 44.39 42.28 46.38 47.01 48.70 49.06 51.56 51.72 51.48 51.50 51.15 52.31 52.78 53.35 54.68 55.49 54.61 56.47 59.11
51.62 49.38 46.45 43.65 46.12 52.32 54.07 51.36 48.13 47.26 48.06 47.62 43.92 46.40 44.48 47.64 45.52 48.04 46.52 46.62 43.33 42.92 46.07 49.05 46.31 43.51 48.08 48.59 49.36 49.43 50.22 50.16 50.47 49.70 48.57 49.21 48.66 50.30 52.00 54.75 55.76 56.77 57.40 58.92
47.83 46.33 45.68 50.32 54.98 50.90 47.24 46.08 44.51 44.57 42.82 45.72 45.17 45.22 45.37 48.36 45.70 46.77 49.45 45.75 44.01 40.98 43.86 44.81 41.23 41.67 47.18 51.41 51.39 50.68 49.70 50.13 51.86 52.87 53.39 52.42 51.69 49.83 51.20 54.01 56.88 57.30 58.71 59.00
48.18 47.35 48.64 49.42 47.91 44.87 41.82 42.98 45.73 43.66 41.17 44.92 45.72 46.12 47.54 48.62 51.68 49.52 50.00 46.26 44.70 40.95 47.08 42.94 39.61 45.02 48.68 49.50 51.30 53.23 51.46 51.07 51.68 52.68 52.17 52.46 52.66 51.75 51.41 53.29 56.34 57.46 59.08 58.89
48.68 47.96 46.57 46.73 45.40 38.35 40.82 38.86 41.50 43.55 48.14 49.58 49.09 46.90 46.81 47.98 51.58 49.41 48.37 45.14 43.35 48.34 43.96 42.08 44.00 46.40 50.21 51.31 49.28 51.28 51.67 51.72 52.43 53.03 53.36 53.24 53.77 53.65 52.53 51.98 55.94 57.48 58.16 59.02
44.12 44.25 35.80 41.64 40.16 40.60 41.21 43.76 45.48 48.66 49.56 49.43 49.78 46.57 46.72 47.80 46.17 48.45 44.78 46.56 47.60 43.10 40.54 42.82 45.62 48.96 51.29 52.62 52.48 51.33 52.12 52.37 52.23 52.95 54.40 54.21 53.52 53.10 53.92 52.88 53.81 57.16 57.45 58.24
43.61 44.60 37.21 38.94 41.64 44.74 47.37 47.95 48.32 50.34 50.67 49.53 48.12 47.13 48.40 47.10 46.01 47.20 44.74 43.78 41.32 43.84 42.50 44.61 47.88 49.37 49.79 53.17 54.60 53.02 51.71 51.38 52.15 52.86 53.54 54.04 53.70 53.07 53.20 53.40 53.10 57.21 58.07 58.23
45.48 43.90 41.40 43.46 42.05 42.00 42.59 45.31 46.35 50.46 51.16 49.68 47.91 46.45 45.23 44.65 45.27 43.94 43.28 42.36 40.84 43.52 47.32 51.18 50.86 50.70 51.58 52.59 53.72 54.44 55.44 55.26 55.47 55.33 53.95 52.26 52.30 52.21 52.68 53.13 52.83 55.77 57.71 58.24
43.84 42.27 43.65 43.20 42.69 44.14 45.65 48.50 48.35 50.96 47.06 45.74 46.30 43.41 43.64 47.31 43.05 42.71 45.73 43.79 46.77 49.19 51.68 52.33 52.15 50.60 50.68 51.64 52.91 54.40 56.07 55.51 55.83 55.98 55.73 55.03 52.66 52.29 53.27 53.21 52.89 54.83 57.65 58.84
MSLP
1018.60 1018.18 1017.75 1017.23 1016.53 1015.51 1014.27 1014.54 1013.42 1010.90 1010.40 1011.40 1012.15 1011.75 1010.47 1009.19 1008.03 1007.21 1006.65 1006.56 1006.39 1006.08 1006.02 1006.24 1006.44 1006.36 1005.90 1005.72 1006.48 1007.97 1008.99 1010.58 1011.52 1011.31 1010.64 1010.81 1011.07 1011.69 1012.75 1014.23 1015.34 1015.40 1014.75 1012.74
1018.41 1018.06 1017.79 1017.48 1017.03 1016.64 1016.48 1015.99 1014.44 1011.26 1010.83 1011.78 1012.32 1011.48 1010.32 1009.10 1008.16 1007.30 1006.81 1006.37 1005.87 1005.68 1005.85 1006.02 1005.89 1005.65 1005.45 1005.87 1006.58 1007.49 1008.85 1011.00 1012.26 1011.98 1011.37 1010.89 1011.30 1011.94 1012.85 1013.75 1014.39 1014.93 1014.73 1012.73
1018.24 1017.88 1017.68 1017.47 1017.14 1016.85 1016.67 1016.51 1015.37 1013.20 1012.42 1012.54 1012.29 1011.94 1010.63 1009.42 1008.17 1007.61 1006.92 1006.53 1005.92 1005.92 1005.96 1005.91 1006.01 1005.86 1005.76 1006.05 1006.61 1007.35 1008.34 1011.20 1011.91 1012.05 1011.63 1011.44 1011.67 1012.00 1012.69 1013.64 1014.47 1014.63 1013.77 1012.55
1018.00 1017.75 1017.62 1017.48 1017.20 1016.82 1016.85 1016.67 1016.45 1015.76 1014.52 1013.75 1013.20 1012.35 1011.12 1010.05 1009.17 1008.06 1007.27 1006.61 1006.48 1006.39 1006.47 1006.26 1006.21 1006.12 1006.25 1006.62 1007.31 1008.09 1009.06 1011.05 1011.86 1011.91 1011.73 1011.64 1011.67 1011.95 1012.50 1013.22 1013.53 1013.90 1013.15 1012.93
1017.83 1017.59 1017.54 1017.44 1017.06 1016.80 1017.02 1017.03 1016.78 1016.00 1015.40 1014.44 1013.60 1012.55 1011.70 1010.81 1010.00 1009.22 1007.87 1007.36 1007.20 1006.69 1006.59 1006.27 1006.26 1006.35 1006.53 1007.03 1007.81 1008.81 1010.12 1011.61 1012.21 1012.49 1012.15 1012.07 1011.97 1011.92 1012.19 1012.61 1012.91 1012.94 1012.66 1012.30
1017.66 1017.48 1017.49 1017.38 1017.20 1016.91 1017.23 1017.19 1016.98 1016.65 1015.59 1014.95 1014.21 1012.99 1012.17 1011.43 1010.97 1009.28 1008.50 1008.09 1007.79 1006.94 1005.90 1005.41 1005.76 1006.04 1006.41 1006.89 1008.14 1009.77 1010.90 1012.03 1013.24 1013.36 1012.91 1012.52 1012.13 1011.04 1011.43 1011.64 1011.62 1011.78 1012.03 1011.58
1017.39 1017.35 1017.48 1017.50 1017.41 1017.49 1017.88 1017.69 1017.42 1017.12 1016.29 1015.42 1014.27 1013.32 1012.79 1012.04 1011.42 1010.76 1009.12 1008.78 1008.46 1006.80 1005.92 1005.67 1006.31 1006.90 1007.34 1007.84 1009.22 1009.80 1011.37 1012.70 1013.41 1014.06 1013.48 1012.86 1010.80 1010.32 1010.45 1010.78 1010.72 1010.91 1011.10 1011.33
1017.11 1017.19 1017.37 1017.44 1017.42 1017.53 1017.76 1017.77 1017.79 1017.39 1016.58 1015.48 1014.29 1013.44 1012.95 1012.29 1011.46 1010.68 1009.35 1008.10 1007.35 1006.88 1006.85 1007.06 1007.87 1008.45 1008.58 1009.39 1010.12 1010.70 1011.37 1012.57 1014.07 1014.41 1013.84 1012.54 1010.72 1010.20 1010.24 1010.44 1010.06 1009.89 1010.48 1011.04
1016.80 1017.01 1017.23 1017.33 1017.33 1017.38 1017.58 1017.67 1017.55 1017.56 1016.94 1015.08 1014.25 1013.78 1013.34 1012.91 1012.07 1010.95 1009.16 1007.86 1007.14 1006.93 1007.20 1007.72 1008.96 1009.38 1009.41 1009.98 1010.72 1011.24 1011.87 1012.35 1013.41 1014.55 1013.87 1012.39 1010.28 1009.54 1009.62 1010.01 1010.24 1009.77 1010.05 1010.65
1016.63 1016.82 1017.02 1017.13 1017.19 1017.22 1017.46 1017.44 1017.33 1017.43 1016.83 1014.73 1014.09 1013.68 1013.25 1012.75 1012.45 1012.01 1010.71 1009.79 1008.21 1007.57 1007.50 1008.73 1009.36 1009.53 1009.34 1010.04 1010.60 1011.36 1012.19 1013.17 1013.79 1014.04 1013.19 1011.53 1009.72 1009.45 1009.64 1010.43 1010.62 1009.83 1010.15 1010.65
1016.59 1016.77 1016.89 1017.03 1017.17 1017.13 1017.28 1017.14 1016.97 1017.16 1016.46 1014.77 1013.70 1013.19 1012.87 1012.77 1012.68 1012.55 1011.39 1010.49 1009.79 1008.70 1008.33 1008.87 1009.33 1009.41 1009.41 1009.82 1010.25 1010.71 1011.53 1012.52 1013.58 1013.85 1012.65 1011.11 1009.58 1009.76 1009.88 1010.09 1009.88 1009.98 1010.26 1010.65
1016.65 1016.78 1016.87 1016.95 1017.04 1017.10 1017.14 1017.37 1016.62 1016.81 1017.03 1014.78 1013.36 1012.59 1012.12 1012.01 1011.91 1012.01 1011.81 1011.61 1011.41 1009.97 1009.11 1009.19 1009.31 1009.62 1009.82 1010.00 1010.47 1010.39 1010.98 1010.77 1011.42 1011.84 1010.74 1009.80 1009.37 1009.33 1009.42 1009.58 1009.88 1009.92 1010.39 1010.85
1016.76 1016.81 1016.89 1016.93 1016.96 1017.02 1017.18 1017.26 1016.95 1016.78 1016.34 1014.23 1012.71 1011.16 1010.30 1010.38 1010.47 1010.84 1011.61 1010.92 1010.80 1010.13 1009.83 1009.62 1009.32 1009.11 1009.30 1010.05 1010.14 1010.06 1010.07 1010.10 1010.33 1010.76 1009.78 1009.34 1009.05 1009.10 1009.21 1009.40 1009.57 1009.88 1010.33 1010.85
1016.84 1016.79 1016.84 1016.83 1016.84 1016.88 1016.92 1017.22 1017.04 1016.92 1016.49 1015.18 1011.85 1010.26 1009.69 1009.08 1009.31 1009.66 1009.85 1010.00 1010.04 1010.29 1010.16 1009.73 1009.35 1008.98 1008.58 1008.95 1009.09 1009.32 1009.16 1009.56 1009.85 1009.70 1009.10 1008.86 1008.52 1008.80 1008.91 1009.29 1009.49 1009.91 1010.49 1010.90
1016.69 1016.71 1016.71 1016.75 1016.66 1016.64 1016.72 1016.78 1016.48 1016.35 1016.63 1015.21 1012.37 1010.30 1008.14 1007.87 1008.22 1008.53 1009.18 1009.71 1010.56 1011.06 1010.88 1010.14 1009.18 1008.15 1008.15 1008.91 1009.05 1008.74 1008.28 1008.45 1008.68 1008.28 1007.69 1007.78 1007.79 1007.99 1008.44 1009.07 1009.45 1009.95 1010.43 1011.01
1016.67 1016.66 1016.68 1016.61 1016.56 1016.54 1016.71 1016.43 1015.99 1015.89 1016.16 1015.35 1013.22 1010.07 1008.23 1007.59 1007.49 1008.12 1008.66 1009.59 1010.69 1010.92 1010.48 1009.57 1008.24 1007.37 1006.95 1008.67 1008.62 1007.19 1006.99 1006.92 1006.62 1006.74 1006.74 1007.08 1007.32 1007.63 1008.11 1008.73 1009.07 1009.48 1010.05 1010.57
1016.58 1016.50 1016.55 1016.44 1016.45 1016.67 1016.60 1016.20 1015.77 1015.67 1015.88 1015.22 1013.59 1011.06 1008.65 1007.55 1007.81 1008.39 1009.03 1009.65 1009.81 1009.71 1009.62 1008.88 1007.95 1007.37 1007.71 1007.73 1007.71 1006.14 1006.12 1006.16 1006.32 1006.34 1006.49 1006.98 1007.08 1007.30 1007.65 1008.28 1008.98 1009.56 1010.06 1010.61
1016.37 1016.35 1016.30 1016.23 1016.21 1016.18 1015.91 1014.80 1014.66 1015.51 1015.70 1015.18 1014.03 1011.34 1009.39 1007.59 1007.52 1007.83 1008.07 1008.94 1009.32 1008.75 1008.18 1007.92 1007.69 1007.60 1007.32 1007.18 1006.06 1005.77 1005.70 1005.80 1005.98 1005.98 1005.83 1005.73 1006.28 1007.11 1007.80 1008.37 1009.13 1009.64 1010.06 1010.47
1016.21 1016.14 1016.06 1016.18 1016.08 1015.87 1014.93 1014.27 1014.30 1014.63 1015.12 1014.50 1013.50 1011.94 1010.29 1008.49 1007.75 1007.47 1007.52 1007.41 1008.31 1007.94 1007.66 1007.54 1006.89 1007.30 1006.84 1005.67 1005.40 1005.50 1005.38 1005.21 1005.26 1005.86 1006.00 1006.23 1006.55 1006.99 1007.63 1008.27 1008.88 1009.46 1009.98 1010.36
1016.03 1016.10 1016.13 1015.55 1014.88 1014.38 1014.48 1014.38 1014.45 1014.48 1014.29 1014.20 1013.18 1012.17 1011.17 1010.13 1008.85 1007.57 1007.43 1006.73 1006.95 1007.33 1006.81 1006.59 1007.37 1007.20 1005.78 1005.07 1004.69 1004.78 1004.76 1004.87 1005.21 1005.82 1006.21 1006.45 1006.92 1007.37 1007.57 1007.80 1008.06 1008.39 1008.98 1009.78
1016.06 1015.97 1015.72 1014.88 1014.24 1014.32 1014.29 1013.91 1013.82 1013.65 1013.42 1012.97 1012.03 1011.50 1010.83 1009.51 1009.11 1008.18 1007.38 1006.97 1006.58 1006.76 1006.81 1006.89 1007.23 1007.31 1005.77 1004.83 1004.69 1004.48 1005.14 1004.89 1004.80 1004.43 1004.67 1005.24 1005.66 1006.58 1007.22 1007.71 1007.99 1008.40 1008.81 1009.24
1016.24 1016.30 1015.75 1015.17 1014.55 1014.26 1014.20 1013.20 1012.72 1012.55 1011.99 1011.50 1011.12 1010.54 1010.26 1009.45 1008.87 1008.40 1007.46 1007.24 1006.53 1006.92 1007.01 1006.86 1006.91 1006.05 1005.00 1004.87 1004.61 1004.32 1004.64 1005.04 1005.08 1004.89 1004.87 1005.14 1005.61 1005.99 1006.79 1007.28 1007.75 1008.08 1008.24 1008.88
1015.92 1015.84 1015.39 1014.78 1014.35 1013.64 1013.23 1012.34 1011.60 1011.23 1010.80 1010.65 1010.53 1010.29 1009.82 1009.57 1009.10 1008.77 1008.22 1007.92 1007.85 1007.34 1007.11 1006.87 1006.24 1005.86 1005.59 1005.42 1004.91 1004.70 1004.63 1004.89 1005.04 1005.05 1005.17 1005.12 1005.40 1005.92 1006.35 1006.91 1007.08 1007.64 1008.23 1008.45
1015.95 1015.33 1014.96 1014.39 1013.65 1012.82 1012.20 1011.63 1011.14 1010.66 1010.53 1010.51 1010.39 1010.22 1009.76 1009.10 1009.04 1009.07 1009.14 1008.75 1008.09 1007.67 1007.34 1006.84 1006.67 1006.57 1006.16 1005.45 1005.07 1004.95 1004.77 1004.84 1004.87 1004.95 1005.14 1005.32 1005.54 1005.76 1006.07 1006.41 1006.71 1007.14 1007.68 1008.21
1015.62 1015.09 1014.33 1013.72 1012.83 1012.06 1011.38 1011.03 1010.78 1010.36 1010.36 1010.19 1010.07 1009.81 1009.64 1008.96 1008.86 1008.85 1009.25 1009.17 1008.89 1008.44 1007.53 1007.34 1007.19 1006.92 1006.53 1006.00 1005.57 1005.25 1005.05 1004.98 1004.98 1004.96 1005.16 1005.33 1005.47 1005.63 1005.82 1006.07 1006.45 1006.79 1007.16 1007.58
1015.17 1014.63 1013.83 1012.86 1012.60 1011.83 1011.27 1010.79 1010.49 1010.19 1010.01 1009.96 1009.92 1009.65 1009.32 1009.30 1008.82 1008.58 1008.26 1007.98 1007.90 1007.73 1007.57 1007.49 1007.29 1007.29 1007.24 1006.83 1006.46 1006.17 1005.79 1005.66 1005.55 1005.28 1005.23 1005.19 1005.30 1005.58 1005.68 1005.98 1006.25 1006.51 1006.71 1007.07
1014.43 1013.68 1013.07 1012.82 1012.40 1011.69 1010.95 1010.48 1010.06 1009.94 1010.12 1009.87 1009.69 1009.47 1009.19 1009.21 1008.97 1008.56 1007.93 1007.55 1007.29 1007.37 1007.34 1007.37 1007.64 1007.78 1007.70 1007.16 1006.78 1006.48 1006.08 1005.86 1005.61 1005.51 1005.50 1005.54 1005.52 1005.51 1005.75 1005.93 1005.84 1006.04 1006.17 1006.31
Wind_Speed
14 14 14 17 19 24 8 4 4 3 3 5 1 3 5 4 2 3 5 2 6 5 4 4 5 8 7 6 8 7 2 6 2 3 4 1 1 4 5 6 3 1 3 8
13 12 11 13 14 12 4 3 4 5 3 3 2 5 4 3 3 3 1 4 5 3 5 3 2 2 1 6 6 9 8 3 3 9 7 3 4 2 4 4 3 5 6 8
13 12 10 11 12 11 2 3 5 5 5 1 4 3 4 4 4 4 4 4 2 2 3 1 5 4 1 2 3 9 9 4 8 8 7 4 2 1 4 4 3 3 7 6
13 11 8 11 12 11 1 3 2 2 4 4 4 2 3 2 4 4 4 2 2 2 3 2 3 2 2 5 5 5 5 4 4 3 2 2 1 3 4 6 4 5 4 6
12 9 7 9 11 10 2 1 2 4 3 4 4 1 0 1 5 2 6 0 6 3 4 7 8 5 3 6 1 3 4 3 2 2 1 5 3 4 5 5 3 7 6 9
13 5 5 7 10 5 2 2 2 2 3 3 2 3 1 2 6 6 8 4 5 4 13 10 4 3 4 5 9 4 4 7 4 5 2 1 5 7 6 5 6 6 6 7
11 5 3 5 7 6 1 1 1 3 4 2 3 4 3 7 3 5 8 7 4 6 1 7 6 9 8 9 7 4 7 6 3 3 2 2 8 2 4 7 7 7 3 4
8 5 3 2 3 3 2 1 1 2 3 3 7 5 3 7 7 6 8 11 8 4 4 6 6 6 3 4 6 3 3 6 4 5 4 5 3 4 6 6 8 7 8 6
8 5 3 2 1 1 2 2 2 1 1 5 4 3 2 3 4 7 6 6 6 2 2 5 6 6 6 3 2 4 6 7 5 3 4 7 8 2 5 4 6 4 7 8
6 5 3 2 1 1 2 2 3 2 2 5 3 5 3 2 3 4 6 8 8 3 3 4 4 4 5 5 8 5 3 4 5 2 3 8 6 1 5 4 8 2 4 6
5 4 3 1 1 2 1 3 4 2 3 6 7 6 5 6 2 3 6 6 3 4 3 4 5 4 6 4 4 5 8 7 4 3 1 7 5 4 6 6 3 3 4 5
2 2 1 1 2 3 2 2 1 2 3 7 3 9 12 14 15 3 1 2 2 4 3 1 2 3 2 5 4 2 2 7 7 9 9 5 4 3 2 4 4 4 5 4
2 3 3 3 2 2 2 2 2 2 3 7 4 10 11 14 19 15 5 3 7 3 2 2 2 3 5 5 5 3 2 3 4 3 2 5 6 3 3 4 3 3 5 6
2 3 4 5 3 3 2 1 1 1 2 5 7 5 9 6 8 13 19 11 1 2 3 2 3 3 3 4 3 4 5 6 6 3 5 3 5 5 6 5 6 8 6 6
3 4 5 6 5 6 4 3 4 3 2 4 8 11 14 13 14 13 15 16 11 3 3 3 5 2 4 2 2 2 6 9 6 7 8 6 5 6 8 7 6 9 9 7
4 5 6 6 5 6 1 3 1 3 3 4 6 5 6 4 4 13 11 7 4 4 4 5 4 3 5 5 3 5 4 6 7 5 5 5 2 6 6 7 7 7 8 7
5 5 6 6 5 0 3 3 0 4 1 2 6 5 5 4 5 3 4 5 4 5 4 4 2 1 4 4 4 6 7 7 6 3 7 3 3 7 9 8 7 6 5 6
6 6 7 7 7 8 4 4 11 6 2 2 4 6 5 4 1 3 4 5 3 3 4 1 3 1 1 2 6 2 3 5 5 9 5 6 6 7 6 6 7 8 6 6
7 7 8 2 2 2 4 3 7 3 2 2 3 3 5 7 4 1 2 4 4 1 4 3 4 1 2 6 5 6 7 9 9 6 3 6 6 8 9 7 7 8 9 9
6 2 1 3 3 6 3 3 1 2 2 2 4 2 4 3 3 3 2 2 4 4 4 3 2 5 4 5 8 6 9 8 9 6 2 2 3 7 7 9 8 9 12 12
0 1 2 2 5 0 1 2 3 3 3 3 4 4 3 2 2 4 2 2 2 4 3 6 4 5 6 6 6 8 5 6 10 7 9 9 7 9 8 6 7 6 8 11
2 3 4 3 1 1 1 3 3 4 4 3 3 3 4 4 1 2 5 3 1 3 3 4 3 6 5 4 8 8 8 7 7 5 8 8 7 7 8 6 7 9 10 8
1 2 2 2 1 1 4 2 1 2 1 1 2 3 2 2 1 2 4 7 3 3 1 3 5 3 4 5 4 4 5 6 3 4 5 5 5 6 7 8 7 7 8 10
1 2 3 3 3 4 4 4 3 4 2 2 3 3 3 2 2 2 4 3 2 5 1 3 2 3 7 5 2 2 3 8 8 7 3 6 6 6 6 7 7 10 10 10
2 3 3 6 5 4 4 3 2 2 2 2 2 2 2 0 3 2 1 4 2 2 4 2 3 4 6 6 6 6 5 1 3 3 4 6 6 5 5 6 7 10 8 10
3 4 3 3 1 4 3 2 3 2 2 1 1 2 4 2 3 2 4 4 5 4 2 2 3 4 4 4 5 5 5 4 3 4 1 1 1 4 5 4 7 8 11 13
4 4 4 3 4 5 3 2 3 2 1 2 1 1 2 1 2 2 2 3 1 1 2 2 1 2 3 4 4 5 5 6 6 4 6 4 2 1 1 4 7 9 11 13
Wind_Direction
321 327 339 339 346 341 41 0 350 308 75 56 38 174 209 254 254 263 258 192 220 221 193 138 170 196 211 165 144 149 130 120 77 221 237 176 252 133 127 118 225 92 141 270
312 316 334 338 346 15 334 359 274 313 84 147 270 291 282 264 290 262 228 257 229 164 200 119 186 173 248 146 140 167 181 44 63 347 346 5 40 49 94 100 87 196 141 259
313 316 337 337 340 349 100 21 351 323 37 30 117 16 276 307 295 265 232 263 188 95 218 92 185 206 74 169 96 87 90 118 151 182 205 167 253 192 109 101 114 182 230 278
312 312 336 336 336 349 86 47 296 176 324 343 346 267 305 308 332 328 291 273 14 235 236 139 206 179 109 44 164 64 108 143 153 222 255 169 242 235 189 194 191 183 268 231
305 305 328 339 343 345 43 54 31 352 280 311 317 56 142 286 337 267 294 215 343 339 194 196 205 154 144 178 180 75 6 158 108 173 108 51 303 279 233 223 224 252 248 271
302 260 297 347 353 3 48 326 335 113 278 334 339 242 320 312 338 269 254 338 356 291 238 200 250 140 119 174 146 135 106 134 117 239 98 121 302 229 193 208 207 187 209 237
301 245 295 353 12 48 114 269 95 90 276 266 224 309 324 282 264 265 278 294 201 255 327 96 61 47 63 67 37 83 127 100 83 166 45 220 239 221 222 222 246 216 209 192
280 227 266 330 4 49 82 275 114 154 265 254 286 270 277 320 293 243 247 252 217 312 310 70 55 357 42 49 32 75 94 122 104 144 189 274 269 222 193 179 275 207 199 172
232 213 233 271 338 360 106 241 149 165 133 254 313 314 319 277 277 304 257 309 303 170 124 87 140 176 191 199 100 92 79 80 111 141 171 217 235 231 155 119 296 283 172 171
196 203 214 235 241 244 152 269 189 125 247 267 202 215 238 314 348 282 302 334 330 326 109 106 144 196 177 155 166 183 58 29 140 148 226 286 244 165 133 101 242 267 171 160
184 199 204 262 348 358 82 265 190 175 259 275 236 240 260 292 218 212 294 340 299 306 93 127 189 127 209 117 172 182 169 140 176 105 111 295 176 100 159 217 277 236 154 150
184 204 216 291 329 322 65 280 286 145 205 256 305 266 251 237 242 235 292 250 293 265 18 73 114 127 135 152 201 79 220 175 177 169 211 228 246 195 130 173 225 219 123 125
193 240 261 281 306 302 186 270 294 251 266 277 248 239 248 230 230 226 205 241 211 280 200 188 236 137 127 149 232 166 208 177 117 91 256 228 227 223 182 189 207 106 115 137
302 286 290 295 307 315 230 226 242 98 278 272 280 296 266 224 199 205 217 231 171 358 342 273 220 170 198 168 185 162 194 135 153 274 277 264 249 214 154 137 115 112 119 141
315 309 299 300 315 316 281 220 224 207 167 290 286 284 274 252 234 214 201 216 236 45 328 295 239 166 132 60 81 228 188 166 156 215 212 156 237 169 151 148 156 152 140 136
335 327 311 303 315 335 325 331 152 200 199 272 304 289 293 311 202 200 192 177 148 192 190 245 269 250 94 133 191 255 208 198 178 197 158 153 98 138 140 156 174 164 156 139
295 299 296 297 298 163 201 205 97 151 203 271 296 284 273 288 131 133 117 156 191 167 212 238 233 319 112 106 168 229 206 216 224 173 123 83 160 184 176 147 158 136 113 122
316 302 298 296 292 287 280 256 230 177 271 279 277 278 308 352 279 136 160 135 223 217 224 257 189 54 28 169 238 215 160 157 165 182 237 154 132 112 132 114 133 149 167 153
304 303 305 335 204 235 239 287 123 172 209 265 259 321 314 351 300 256 207 163 158 195 201 222 93 323 194 220 174 190 183 177 186 163 70 119 150 169 161 158 160 165 173 166
311 308 285 268 218 236 150 218 172 168 202 223 250 276 257 318 281 277 229 205 154 154 239 71 99 264 273 254 213 208 195 185 133 110 137 147 150 182 178 191 187 186 180 174
20 247 243 299 300 213 216 256 202 152 232 203 238 212 245 268 268 296 3 291 172 132 211 146 164 226 239 216 210 212 235 195 204 186 194 183 176 174 186 209 203 180 165 183
321 289 286 283 259 256 277 247 170 208 238 196 216 244 203 275 276 322 339 293 9 97 310 110 161 247 246 252 230 218 196 198 233 246 199 192 198 181 177 194 186 182 192 139
280 226 247 239 201 258 240 259 259 334 255 21 1 331 261 287 284 305 358 4 7 259 153 212 222 311 311 307 274 278 230 206 218 196 226 208 209 158 174 192 202 178 169 168
264 242 273 230 217 240 205 227 238 245 185 262 242 248 232 226 130 117 339 322 307 3 328 242 325 308 308 317 273 211 206 200 216 226 230 242 227 222 198 205 188 176 179 172
252 234 241 224 238 279 256 268 274 269 262 238 270 274 239 204 134 116 151 131 241 276 274 312 281 313 344 10 26 52 51 116 182 189 215 235 225 214 232 196 188 195 181 168
235 232 261 246 306 283 309 267 266 210 256 307 56 318 40 265 311 184 225 188 199 222 211 264 337 351 345 10 19 19 52 75 77 74 84 273 216 223 240 136 186 189 182 184
241 241 227 238 254 249 250 200 275 161 60 234 156 297 153 81 318 286 265 235 205 291 225 129 33 323 303 347 19 29 20 33 32 23 20 353 299 174 274 239 206 194 195 195